TimeCEST,TemperatureF,Dew PointF,Humidity,Sea Level PressureIn,VisibilityMPH,Wind Direction,Wind SpeedMPH,Gust SpeedMPH,PrecipitationIn,Events,Conditions,WindDirDegrees,DateUTC
12:55 AM,44.6,41.0,87,30.01,-9999.0,North,-9999.0,-,N/A,,Clear,0,2012-10-09 22:55:00
1:55 AM,44.6,41.0,87,30.01,-9999.0,North,-9999.0,-,N/A,,Clear,0,2012-10-09 23:55:00
2:00 AM,45,41,80,,9,Calm,Calm,,,,,,2012-10-10 00:00:00
2:55 AM,44.6,41.0,87,30.01,-9999.0,North,-9999.0,-,N/A,,Clear,0,2012-10-10 00:55:00
3:55 AM,44.6,42.8,93,30.01,-9999.0,North,-9999.0,-,N/A,,Clear,0,2012-10-10 01:55:00
4:55 AM,44.6,42.8,93,30.01,-9999.0,North,-9999.0,-,N/A,,Clear,0,2012-10-10 02:55:00
5:55 AM,44.6,42.8,93,30.01,-9999.0,North,-9999.0,-,N/A,,Clear,0,2012-10-10 03:55:00
6:55 AM,44.6,41.0,87,29.98,-9999.0,North,-9999.0,-,N/A,,Clear,0,2012-10-10 04:55:00
7:55 AM,44.6,39.2,81,29.98,-9999.0,North,-9999.0,-,N/A,,Clear,0,2012-10-10 05:55:00
8:00 AM,45,39,72,,9,Calm,Calm,,,,,,2012-10-10 06:00:00
8:55 AM,44.6,41.0,87,29.98,-9999.0,North,-9999.0,-,N/A,,Clear,0,2012-10-10 06:55:00
9:55 AM,46.4,41.0,81,30.01,-9999.0,North,-9999.0,-,N/A,,Clear,0,2012-10-10 07:55:00
10:55 AM,46.4,41.0,81,30.01,-9999.0,North,-9999.0,-,N/A,,Scattered Clouds,0,2012-10-10 08:55:00
11:55 AM,48.2,46.4,93,30.01,-9999.0,North,-9999.0,-,N/A,,Scattered Clouds,0,2012-10-10 09:55:00
12:55 PM,50.0,46.4,87,30.01,-9999.0,North,-9999.0,-,N/A,,Scattered Clouds,0,2012-10-10 10:55:00
2:00 PM,50,47,88,,6,WSW,4.6,,,,,240,2012-10-10 12:00:00
2:55 PM,51.8,48.2,88,30.01,-9999.0,North,-9999.0,-,N/A,,Scattered Clouds,0,2012-10-10 12:55:00
4:55 PM,51.8,48.2,88,29.98,-9999.0,North,-9999.0,-,N/A,,Scattered Clouds,0,2012-10-10 14:55:00
7:55 PM,48.2,48.2,100,29.98,-9999.0,North,-9999.0,-,N/A,,Scattered Clouds,0,2012-10-10 17:55:00
8:00 PM,49,48,94,,6,Calm,Calm,,,,,,2012-10-10 18:00:00
8:55 PM,48.2,46.4,93,29.98,-9999.0,North,-9999.0,-,N/A,,Clear,0,2012-10-10 18:55:00
9:55 PM,48.2,44.6,87,29.98,-9999.0,North,-9999.0,-,N/A,,Clear,0,2012-10-10 19:55:00